Location: Castillon
(43.0896°N, 0.2156°E)
Time: 15:26:05
(UTC+00:00)

Okean 1 Rocket - Pass Details

Date: 16 June 2021
Orbit: 607 x 633 km, 82.5° (Epoch: 03 August)

Event Time Altitude Azimuth Distance (km) Brightness Sun altitude
Rises 20:24:01 0° 355° (N) 2,883 7.3 -7.1°
Reaches altitude 10° 20:26:16 10° 358° (N) 1,976 6.3 -7.4°
Maximum altitude 20:30:36 63° 80° (E) 691 3.1 -8.0°
Drops below altitude 10° 20:34:56 10° 162° (SSE) 1,975 5.1 -8.5°
Enters shadow 20:35:26 - 163° (SSE) 2,174 5.3 -8.6°
